CAPE
2 2 1 3 7 11 10 4 0 0 0 0 0 0 0 0 0 0 0 0 0 0 0 0 0 0 0 0 0 0 0 0 0 0 0 0 0 0 0 0 0 240 417 504 600
2 5 4 5 4 4 2 1 0 1 2 2 1 0 0 0 0 0 0 0 0 0 0 0 0 0 0 0 0 0 0 0 0 0 0 0 0 0 0 0 0 25 661 541 495
5 3 4 2 4 3 2 1 0 1 2 3 3 5 0 0 0 0 0 0 0 0 0 0 0 0 0 0 0 0 0 0 0 0 0 0 0 0 0 0 0 0 516 503 579
2 1 0 0 0 0 0 0 0 0 0 0 1 7 1 0 0 0 0 0 0 0 0 0 0 0 0 0 0 0 0 0 0 0 0 0 0 0 0 0 0 0 386 514 553
0 0 0 0 0 0 0 0 0 0 0 0 0 2 0 0 0 0 0 0 0 0 0 0 0 0 0 0 0 0 0 0 0 0 0 0 0 0 0 0 0 0 486 521 455
0 0 0 0 0 0 0 0 0 0 0 0 0 3 1 0 0 0 0 0 0 0 0 0 0 0 0 0 0 0 0 0 0 0 0 0 0 0 0 0 0 0 88 677 557
0 0 0 0 0 0 0 0 0 0 0 0 0 0 0 0 0 0 0 0 0 0 0 0 0 0 0 0 0 0 0 0 0 0 0 0 0 0 0 0 0 0 71 796 802
1 0 0 0 0 0 0 0 0 0 0 0 0 2 0 0 0 0 0 0 0 0 0 0 0 0 0 0 0 0 0 0 0 0 0 0 0 0 0 0 0 0 34 762 946
0 0 0 0 0 0 0 0 0 0 0 0 0 0 0 0 0 0 0 0 0 0 0 0 0 0 0 0 0 0 0 0 0 0 0 0 0 0 0 0 0 0 0 438 832
0 0 0 0 0 0 0 0 0 0 0 0 3 0 0 0 0 0 0 0 0 0 0 0 0 1 3 25 1 0 0 0 0 0 0 0 0 0 0 0 0 0 0 176 399
1 0 0 0 0 0 0 0 0 0 0 0 0 0 0 0 0 0 0 0 0 0 0 0 0 0 0 7 5 2 0 0 0 0 0 0 0 0 0 0 0 0 0 0 423
2 1 0 0 0 0 0 0 0 0 0 0 0 0 0 0 0 0 0 0 0 0 0 0 0 0 0 10 18 11 0 0 0 0 0 0 0 0 0 0 0 0 0 0 0
8 1 0 0 0 0 0 0 0 0 0 0 0 0 0 0 0 0 0 0 0 0 0 0 0 0 0 0 2 0 14 0 0 0 0 0 0 0 0 0 0 0 0 0 0
10 1 0 0 0 0 0 0 0 0 0 0 0 0 0 0 0 0 0 0 0 0 0 0 0 0 0 0 0 2 0 3 1 0 0 0 0 0 0 0 0 0 0 0 0
7 1 3 0 0 0 0 0 0 0 0 0 5 0 0 0 0 15 0 0 0 0 0 0 0 0 1 0 0 0 0 3 9 2 0 0 9 0 0 0 0 0 0 0 0
3 1 1 0 0 0 0 0 0 0 0 0 0 0 0 0 0 0 0 0 0 0 0 0 0 9 0 0 8 2 12 4 1 2 11 0 0 0 0 0 0 0 0 0 0
2 0 0 0 0 0 0 0 0 0 0 0 0 0 0 0 0 0 0 0 0 0 0 0 0 0 0 2 0 1 6 2 0 0 4 0 13 0 0 0 0 0 0 0 0
0 0 0 0 0 0 0 0 0 0 0 0 0 0 0 0 0 0 0 0 0 0 0 0 0 0 0 2 0 33 0 0 0 0 1 0 2 0 0 0 0 0 0 0 0
0 0 0 0 0 0 0 0 0 0 0 0 0 0 0 0 0 0 0 0 0 0 0 0 0 0 0 0 1 0 0 0 0 0 1 5 1 0 0 0 0 0 0 0 0
0 0 0 0 0 0 0 0 0 0 0 0 0 0 0 0 0 0 0 1 0 0 0 0 0 0 0 0 0 0 1 1 7 0 1 0 0 0 0 0 0 0 0 0 0
0 0 0 3 0 0 0 0 0 0 0 0 0 1 0 0 0 0 0 0 0 1 0 0 0 0 0 0 0 0 0 2 0 8 5 7 0 0 0 0 0 0 0 0 0
0 0 0 0 0 0 0 0 1 0 0 0 0 0 0 0 0 0 1 0 0 0 6 0 0 0 0 0 0 0 0 1 4 0 0 0 0 0 0 0 0 0 0 0 0
0 0 0 0 0 0 0 0 0 0 0 0 0 0 0 0 0 0 0 0 0 0 0 2 0 0 0 0 0 0 0 0 0 0 1 5 0 0 0 0 0 0 0 0 0
0 0 0 0 0 0 0 0 0 0 0 0 0 0 0 0 0 0 0 0 0 0 5 4 2 0 0 0 0 0 0 0 0 0 0 3 0 0 0 0 0 0 0 0 0
0 0 0 0 0 0 0 0 0 0 0 0 0 0 0 0 0 0 0 0 0 0 0 0 0 0 0 0 0 0 0 0 0 0 0 0 0 0 0 0 0 0 0 0 0
0 0 0 0 0 0 0 0 0 0 0 0 0 0 0 0 0 0 0 0 0 0 0 0 0 0 0 0 2 0 0 0 0 1 0 0 0 0 0 0 0 0 0 0 0
0 0 0 0 0 0 0 0 0 2 0 0 0 0 0 0 0 0 0 0 0 0 0 0 0 0 0 0 0 0 0 0 0 0 0 0 0 0 0 0 0 0 0 0 0
CIN
-2 -2 -1 -3 -0 -1 -0 -0 -0 -0 -0 -0 -0 -0 -0 -0 -0 -0 -0 -0 -0 -0 -0 -0 -0 -0 -0 -0 -0 -0 -0 -0 -0 -0 -0 -0 -0 -0 -0 -0 -0 -137 -110 -165 -446
-0 -0 -0 -0 -0 -0 -0 -0 -0 -0 -0 -0 -0 -0 -0 -0 -0 -0 -0 -0 -0 -0 -0 -0 -0 -0 -0 -0 -0 -0 -0 -0 -0 -0 -0 -0 -0 -0 -0 -0 -0 -78 -158 -307 -504
-0 -0 -0 -0 -0 -0 -0 -0 -0 -0 -0 -0 -0 -0 -0 -0 -0 -0 -0 -0 -0 -0 -0 -0 -0 -0 -0 -0 -0 -0 -0 -0 -0 -0 -0 -0 -0 -0 -0 -0 -0 -0 -190 -277 -380
-0 -0 -0 -0 -0 -0 -0 -0 -0 -0 -0 -0 -0 -0 -0 -0 -0 -0 -0 -0 -0 -0 -0 -0 -0 -0 -0 -0 -0 -0 -0 -0 -0 -0 -0 -0 -0 -0 -0 -0 -0 -0 -188 -291 -321
-0 -0 -0 -0 -0 -0 -0 -0 -0 -0 -0 -0 -0 -0 -0 -0 -0 -0 -0 -0 -0 -0 -0 -0 -0 -0 -0 -0 -0 -0 -0 -0 -0 -0 -0 -0 -0 -0 -0 -0 -0 -0 -125 -237 -235
-0 -0 -0 -0 -0 -0 -0 -0 -0 -0 -0 -0 -0 -0 -0 -0 -0 -0 -0 -0 -0 -0 -0 -0 -0 -0 -0 -0 -0 -0 -0 -0 -0 -0 -0 -0 -0 -0 -0 -0 -0 -0 -87 -172 -221
-0 -0 -0 -0 -0 -0 -0 -0 -0 -0 -0 -0 -0 -0 -0 -0 -0 -0 -0 -0 -0 -0 -0 -0 -0 -0 -0 -0 -0 -0 -0 -0 -0 -0 -0 -0 -0 -0 -0 -0 -0 -0 -38 -135 -192
-0 -0 -0 -0 -0 -0 -0 -0 -0 -0 -0 -0 -0 -0 -0 -0 -0 -0 -0 -0 -0 -0 -0 -0 -0 -0 -0 -0 -0 -0 -0 -0 -0 -0 -0 -0 -0 -0 -0 -0 -0 -0 -35 -93 -142
-0 -0 -0 -0 -0 -0 -0 -0 -0 -0 -0 -0 -0 -0 -0 -0 -0 -0 -0 -0 -0 -0 -0 -0 -0 -0 -1 -0 -0 -0 -0 -0 -0 -0 -0 -0 -0 -0 -0 -0 -0 -0 -0 -95 -118
-0 -0 -0 -0 -0 -0 -0 -0 -0 -0 -0 -0 -2 -0 -0 -0 -0 -0 -0 -0 -0 -0 -0 -0 -0 -2 -10 -1 -1 -0 -0 -0 -0 -0 -0 -0 -0 -0 -0 -0 -0 -0 -0 -122 -120
-0 -0 -0 -0 -0 -0 -0 -0 -0 -0 -0 -0 -0 -0 -0 -0 -0 -0 -0 -0 -0 -0 -0 -0 -0 -0 -0 -7 -12 -1 -0 -0 -0 -0 -0 -0 -0 -0 -0 -0 -0 -0 -0 -0 -94
-0 -0 -0 -0 -0 -0 -0 -0 -0 -2 -0 -0 -0 -0 -0 -0 -0 -0 -0 -0 -0 -0 -0 -0 -0 -0 -0 -1 -4 -7 -0 -0 -0 -0 -0 -0 -0 -0 -0 -0 -0 -0 -0 -0 -0
-0 -0 -0 -0 -0 -0 -0 -0 -0 -0 -0 -0 -0 -0 -0 -0 -0 -0 -0 -0 -0 -0 -0 -0 -0 -0 -0 -0 -0 -0 -2 -0 -0 -0 -0 -0 -0 -0 -0 -0 -0 -0 -0 -0 -0
-0 -0 -0 -0 -0 -0 -0 -0 -0 -0 -0 -0 -0 -0 -0 -0 -0 -0 -0 -0 -0 -0 -0 -0 -0 -0 -0 -0 -0 -0 -0 -0 -0 -0 -0 -0 -0 -0 -0 -0 -0 -0 -0 -0 -0
-0 -0 -0 -0 -0 -0 -0 -0 -0 -0 -0 -0 -3 -0 -0 -0 -0 -33 -0 -0 -0 -0 -1 -0 -0 -0 -1 -0 -0 -0 -0 -0 -0 -0 -0 -0 -1 -0 -0 -0 -0 -0 -0 -0 -0
-0 -0 -0 -0 -0 -0 -0 -0 -0 -0 -0 -0 -0 -0 -0 -0 -0 -6 -4 -21 -0 -0 -0 -0 -0 -1 -0 -0 -6 -0 -0 -0 -0 -0 -3 -0 -0 -0 -0 -0 -0 -0 -0 -0 -0
-0 -0 -0 -0 -0 -0 -0 -0 -0 -0 -0 -0 -0 -0 -0 -0 -0 -0 -0 -0 -0 -0 -0 -0 -0 -0 -0 -0 -0 -0 -5 -1 -2 -0 -3 -0 -1 -0 -0 -0 -0 -0 -0 -0 -0
-0 -0 -0 -0 -0 -0 -0 -0 -0 -0 -0 -0 -0 -0 -0 -0 -0 -0 -0 -0 -0 -0 -0 -0 -0 -0 -0 -0 -0 -9 -0 -0 -0 -8 -1 -0 -0 -0 -0 -0 -0 -0 -0 -0 -0
-0 -0 -0 -0 -0 -0 -0 -0 -0 -0 -0 -0 -0 -0 -0 -0 -2 -1 -0 -0 -3 -0 -0 -0 -0 -0 -0 -0 -1 -0 -0 -0 -0 -0 -26 -8 -2 -0 -0 -0 -0 -0 -0 -0 -0
-0 -0 -0 -0 -0 -7 -0 -0 -0 -0 -0 -0 -0 -0 -0 -0 -0 -0 -0 -4 -0 -0 -0 -0 -1 -0 -0 -0 -0 -0 -0 -3 -12 -0 -2 -0 -0 -0 -0 -0 -0 -0 -0 -0 -0
-0 -0 -0 -49 -0 -3 -0 -0 -0 -0 -0 -0 -0 -1 -0 -2 -0 -0 -0 -0 -0 -3 -0 -4 -0 -0 -0 -0 -0 -0 -0 -1 -0 -5 -5 -5 -0 -0 -0 -0 -0 -0 -0 -0 -0
-0 -0 -0 -0 -0 -0 -0 -0 -2 -0 -0 -0 -0 -0 -0 -0 -0 -0 -2 -0 -0 -0 -0 -0 -0 -0 -0 -0 -0 -0 -0 -0 -4 -0 -0 -0 -0 -0 -0 -0 -0 -0 -0 -0 -0
-0 -0 -0 -0 -0 -0 -0 -0 -0 -0 -0 -0 -0 -0 -0 -0 -0 -0 -0 -0 -2 -0 -0 -2 -0 -0 -0 -0 -0 -0 -0 -0 -0 -0 -2 -1 -0 -0 -0 -0 -0 -0 -0 -0 -0
-0 -0 -0 -0 -0 -1 -1 -0 -0 -0 -0 -0 -0 -0 -0 -0 -0 -0 -0 -0 -0 -0 -2 -6 -3 -0 -0 -0 -0 -0 -0 -0 -0 -0 -0 -8 -0 -0 -0 -0 -0 -0 -0 -0 -0
-0 -0 -0 -0 -0 -0 -0 -0 -0 -0 -0 -0 -0 -0 -0 -0 -0 -0 -0 -0 -0 -0 -0 -0 -0 -0 -0 -0 -0 -0 -0 -0 -0 -1 -0 -0 -0 -0 -0 -0 -0 -0 -0 -0 -0
-0 -0 -0 -0 -0 -0 -0 -0 -0 -0 -0 -0 -0 -0 -0 -0 -0 -0 -0 -0 -0 -0 -0 -0 -0 -0 -0 -0 -4 -0 -0 -0 -0 -0 -0 -0 -0 -0 -0 -0 -0 -0 -0 -0 -0
-0 -0 -0 -0 -0 -0 -0 -0 -0 -2 -0 -0 -0 -0 -0 -0 -0 -0 -0 -0 -0 -0 -0 -0 -0 -0 -0 -0 -0 -0 -0 -0 -0 -0 -0 -0 -0 -0 -0 -0 -0 -0 -0 -0 -0
Wind_Speed
25 25 26 27 28 29 29 29 30 32 33 35 35 36 37 39 40 31 31 29 30 34 35 36 32 31 29 29 28 25 39 48 43 32 26 16 22 19 23 26 27 19 15 17 7
26 27 28 28 29 30 30 31 32 32 33 34 35 37 38 40 35 30 28 25 29 32 32 35 36 32 34 32 31 35 44 50 36 40 35 33 34 30 30 32 29 22 12 3 8
28 28 29 30 31 31 32 33 33 34 35 35 36 36 37 37 35 25 23 27 31 29 29 33 33 33 38 35 37 39 57 45 45 40 41 41 44 33 34 35 29 25 13 7 11
29 30 31 32 33 34 34 35 35 35 36 36 36 37 36 30 38 23 28 33 33 30 28 30 31 37 43 45 40 50 54 51 52 45 41 45 41 43 37 43 35 30 13 12 13
30 31 32 33 34 35 36 37 37 36 36 36 36 36 31 34 33 30 35 34 32 33 31 31 35 37 49 44 44 52 57 53 47 48 52 45 53 47 46 44 33 33 14 15 16
30 31 32 33 34 36 37 38 38 37 38 37 35 34 32 45 27 27 32 36 33 33 33 31 32 33 44 47 49 46 49 54 54 58 48 46 56 39 51 42 33 32 18 18 15
30 31 32 34 35 37 37 37 37 37 36 34 32 31 33 39 30 37 38 34 33 31 35 32 34 35 35 46 44 50 60 58 59 51 55 45 58 54 55 40 35 32 18 20 18
31 32 33 35 36 37 38 38 38 39 35 29 26 27 36 31 30 33 31 31 29 31 31 34 34 38 38 38 42 48 54 66 73 54 51 38 66 58 53 42 38 32 25 22 24
31 32 34 35 37 38 39 39 37 33 28 23 25 27 37 27 27 25 22 30 31 31 34 37 32 38 37 46 50 50 63 66 75 55 47 43 62 60 50 40 42 35 30 25 25
31 33 34 36 38 39 39 36 29 24 26 23 23 29 25 28 25 26 25 27 34 38 35 30 32 41 44 46 65 61 64 64 75 63 54 51 63 59 46 42 48 40 35 30 24
32 33 35 37 39 37 34 28 30 27 32 31 31 29 35 31 31 39 28 29 31 31 37 34 41 51 53 51 58 59 62 67 78 49 53 61 67 65 54 51 49 45 38 33 29
31 33 35 37 39 28 28 27 29 29 37 28 19 17 18 23 25 24 15 20 23 32 31 38 52 48 48 51 55 59 64 72 78 55 53 62 65 69 62 58 54 52 44 38 32
31 32 35 37 34 25 27 25 28 32 30 26 18 20 23 18 21 24 18 21 27 35 36 42 44 41 47 54 60 59 63 72 74 59 57 59 63 66 59 66 56 55 54 43 37
30 31 33 35 23 29 24 25 29 24 31 22 18 19 22 20 20 17 20 21 25 34 33 37 38 42 47 55 56 65 57 64 72 66 72 53 80 70 63 63 55 59 57 57 43
29 29 30 29 23 25 22 26 26 20 34 20 19 18 29 22 21 19 20 21 26 28 28 37 38 38 45 53 47 66 53 55 62 67 68 71 64 67 64 70 63 60 64 59 50
29 29 28 23 23 16 21 24 20 26 25 20 18 28 30 22 21 23 22 21 22 29 29 41 39 39 42 42 42 44 52 55 53 58 78 76 67 74 65 63 69 67 62 60 54
29 28 24 18 19 18 23 21 25 25 22 23 25 32 30 22 27 28 26 27 26 31 33 38 32 29 31 40 43 46 50 59 60 65 77 70 68 82 58 61 63 65 61 60 55
30 29 21 15 15 15 20 23 27 22 21 25 29 27 21 26 33 30 26 27 22 24 32 31 32 23 22 30 36 43 52 60 58 53 67 64 70 95 72 53 60 57 62 59 53
30 25 20 19 13 14 20 25 23 21 22 28 27 21 21 30 30 27 22 24 19 20 27 30 29 27 34 32 32 36 48 56 64 45 49 59 55 67 65 70 59 53 52 61 62
27 24 19 19 15 16 22 22 20 18 24 23 21 19 25 31 30 32 23 17 24 19 20 27 35 29 30 31 27 35 31 43 47 65 54 43 61 80 58 62 65 68 50 49 50
22 21 16 18 17 19 22 20 18 17 23 19 18 19 22 26 31 29 23 27 24 29 20 29 28 33 30 23 27 29 44 36 40 50 53 40 41 48 51 53 57 59 60 51 49
21 22 16 17 21 19 20 17 19 19 18 15 16 18 24 32 30 27 21 27 28 31 31 26 30 34 35 26 24 23 27 34 38 39 34 42 34 13 25 31 36 37 43 48 47
21 18 17 15 20 20 18 18 17 17 17 16 16 19 25 28 32 26 29 23 28 34 28 28 28 34 31 24 25 26 29 32 36 36 44 38 39 23 18 18 23 31 31 33 38
19 21 17 17 17 18 19 20 18 16 16 13 16 19 27 29 24 32 35 25 36 35 28 28 30 33 35 33 32 31 33 34 33 39 40 42 39 30 28 28 23 23 24 28 31
17 17 16 20 18 18 18 18 17 18 14 16 17 23 32 31 37 29 40 39 33 25 27 28 31 28 34 35 35 36 36 35 38 39 43 38 36 37 31 27 28 26 25 25 26
15 16 17 18 18 17 16 16 15 16 15 17 17 28 30 31 33 43 39 35 32 37 32 33 31 38 34 34 31 37 41 38 36 36 39 40 36 25 28 30 30 28 28 27 27
14 14 17 18 19 19 16 15 16 18 17 12 22 31 31 30 29 28 29 25 17 39 42 33 29 33 37 31 36 32 25 24 24 24 33 38 37 34 35 33 32 33 27 26 27
Wind_Direction
332 335 337 337 336 335 336 335 334 333 329 325 323 319 317 313 310 314 303 298 287 290 288 281 278 278 275 267 263 265 258 255 254 257 258 267 268 274 284 280 286 273 273 278 152
333 334 335 335 335 335 334 333 333 333 331 328 324 319 317 314 315 313 319 311 304 294 286 276 270 273 266 264 260 253 255 254 259 256 259 260 264 271 277 274 277 278 279 219 165
335 336 335 334 332 332 331 331 331 330 328 326 324 322 321 319 310 305 327 323 315 303 291 281 271 266 262 260 255 256 252 257 257 261 258 256 257 271 271 266 271 287 257 194 182
337 335 333 332 330 328 329 328 328 328 327 325 324 322 321 320 300 311 315 315 313 310 295 286 272 261 259 256 256 257 256 257 257 259 261 252 260 262 265 253 270 282 258 205 188
338 336 334 330 330 330 329 328 327 327 326 325 324 323 323 310 305 308 308 310 309 302 293 284 272 265 257 258 258 255 255 258 261 258 255 259 251 258 261 254 270 275 263 215 183
338 335 333 334 332 329 328 327 328 328 324 322 322 323 319 301 312 310 310 307 304 299 291 284 276 270 265 259 256 257 258 259 257 253 257 256 249 260 252 254 265 271 254 229 210
337 336 337 334 332 330 331 331 330 329 326 324 324 323 313 304 308 305 299 298 299 298 288 286 278 269 268 260 263 258 255 257 254 254 252 256 252 249 245 255 260 266 249 232 227
338 337 335 335 334 334 332 331 331 329 327 328 328 324 310 319 315 306 301 293 296 298 292 287 280 269 264 266 264 257 253 250 245 251 250 250 247 246 245 253 254 258 255 240 237
340 339 337 338 336 334 332 332 332 340 344 344 335 326 313 324 316 316 312 296 295 295 294 287 276 264 262 256 255 252 247 246 246 246 248 243 246 246 246 250 250 253 256 242 237
340 339 339 340 338 334 334 336 342 350 353 349 343 328 324 321 317 316 315 304 294 292 288 286 271 261 255 250 247 247 246 246 245 244 245 246 246 246 248 247 248 252 253 247 237
339 339 339 338 338 337 345 350 347 343 342 330 321 318 314 316 312 298 305 302 297 290 278 278 266 257 254 252 253 253 249 248 245 252 247 246 246 246 247 249 248 249 250 247 242
339 340 340 339 338 351 354 355 352 344 335 337 334 331 330 332 324 330 338 309 303 289 287 277 264 265 265 256 254 252 247 247 247 252 248 246 247 247 247 247 247 247 250 248 245
340 341 340 340 342 354 352 357 356 352 342 344 351 351 349 354 331 329 343 321 302 290 287 275 270 275 266 255 251 251 249 246 245 249 252 249 250 246 246 244 247 247 247 250 245
341 342 344 344 358 350 354 356 353 0 343 345 349 357 354 353 338 346 342 327 309 292 293 282 280 272 264 257 251 250 250 250 245 246 244 246 246 244 243 243 243 243 244 245 247
343 345 346 351 352 353 358 357 357 8 340 353 357 1 344 344 338 336 347 334 314 303 294 287 283 275 265 259 257 249 251 253 248 246 246 243 247 244 242 240 241 241 241 242 245
346 346 347 355 352 358 359 358 10 351 341 350 354 342 337 335 332 330 336 337 323 310 303 286 291 276 270 267 262 254 248 250 254 248 242 239 242 243 239 237 237 240 241 242 245
346 347 348 352 355 6 1 5 352 346 354 348 342 339 335 336 325 321 320 323 317 309 307 301 303 291 275 266 261 252 244 242 247 242 240 239 239 241 241 239 240 240 242 243 245
345 347 356 358 4 12 7 359 346 351 348 346 343 342 342 339 320 317 313 315 326 320 310 305 301 306 296 270 264 253 238 235 241 250 241 239 238 239 241 245 244 245 244 245 247
350 357 7 13 26 29 6 352 350 352 353 345 346 349 344 329 330 326 319 313 327 330 315 308 301 308 287 279 266 256 244 237 241 258 252 242 240 246 243 242 245 246 245 244 245
355 1 11 14 37 17 1 353 354 358 350 351 349 351 339 328 328 318 325 329 321 327 327 311 293 302 300 294 267 256 258 237 238 241 250 250 232 238 239 241 241 242 247 247 247
2 3 18 29 21 8 354 355 355 356 354 358 353 346 340 327 317 320 322 317 323 315 322 310 294 294 301 293 288 270 245 249 242 240 243 252 245 244 246 246 246 246 247 251 251
4 358 16 12 1 3 359 3 358 354 358 0 355 348 335 315 316 322 324 322 320 314 308 307 289 288 284 289 298 286 267 252 248 241 247 245 246 272 256 255 253 254 253 252 255
360 2 12 12 357 359 1 357 355 357 0 358 352 347 335 324 310 314 311 332 320 311 307 307 289 284 288 284 295 290 277 265 267 250 240 242 241 266 279 276 269 259 262 260 259
5 360 9 8 3 1 2 356 359 1 353 0 350 343 332 323 328 309 301 322 307 305 316 308 291 276 274 275 283 282 280 270 267 247 251 246 251 256 272 266 270 270 271 268 266
7 5 9 360 1 3 359 352 347 355 3 360 354 338 324 323 311 315 296 298 307 314 310 313 285 284 276 272 274 277 280 274 267 259 248 250 257 258 266 268 266 270 275 274 274
2 4 6 355 349 345 348 352 350 349 356 347 341 331 327 321 318 287 305 309 304 295 298 299 286 281 273 275 276 281 280 275 265 259 257 255 257 269 270 272 270 270 273 277 275
1 358 356 355 356 354 349 349 346 349 344 350 338 326 323 324 324 322 317 311 290 284 274 291 294 286 270 280 284 282 287 288 281 277 260 254 254 267 270 268 270 272 280 282 278